Wetbulb
42.43 42.48 42.61 42.95 43.68 44.47 45.14 45.71 45.36 44.86 43.86 43.68 43.63 44.01 45.01 45.31 46.57 48.20 48.80 48.96 48.49 48.06 47.41 45.25 44.42 44.46 43.82 39.50 37.98 37.07 36.83 38.31 37.60 28.59 29.37 29.88 29.71 29.66 29.65 31.23 31.49 30.77 30.67
41.90 42.16 42.29 42.58 42.67 42.77 43.30 43.90 43.56 43.65 42.40 42.58 41.64 42.33 44.47 46.03 46.35 46.38 46.72 47.05 46.81 45.24 45.28 44.07 43.38 43.40 42.32 40.34 38.16 36.67 36.78 37.40 37.94 27.75 27.32 27.87 28.78 30.01 29.82 30.10 29.67 29.95 28.81
39.89 40.39 40.86 41.22 41.44 41.66 41.81 41.91 41.80 41.72 41.20 40.14 40.00 40.85 42.07 43.63 44.72 45.05 45.88 45.55 45.30 45.93 45.12 43.92 43.27 42.50 41.05 41.17 39.04 37.68 36.44 34.53 35.10 30.55 26.42 28.18 27.64 29.50 28.41 29.38 27.34 27.30 28.32
38.27 38.51 38.86 39.55 40.29 40.77 40.85 40.52 40.21 39.88 39.57 39.11 38.58 40.17 40.16 40.42 41.55 43.51 43.64 43.21 43.24 43.64 43.28 43.44 42.84 42.34 40.90 40.53 36.47 35.70 33.40 31.47 31.77 31.40 28.09 27.00 27.49 27.43 27.39 25.61 24.34 26.46 25.84
36.21 36.31 36.75 37.18 37.71 37.61 36.95 36.43 36.12 35.78 37.56 37.74 36.89 36.37 37.40 37.74 39.15 39.44 40.30 40.61 40.52 40.88 40.42 40.46 40.31 40.04 38.65 39.78 35.52 33.53 32.26 32.26 31.31 31.24 27.01 25.99 25.35 24.60 24.35 25.73 25.28 25.74 26.16
33.77 33.21 34.17 33.20 32.95 33.18 33.23 33.53 33.76 34.01 34.08 33.87 33.78 34.61 34.74 37.06 39.71 40.29 39.18 37.85 37.48 37.57 37.81 36.97 36.57 34.55 35.61 38.06 37.66 36.85 34.26 32.66 31.52 30.53 28.34 26.46 25.47 25.31 26.22 25.26 24.97 24.23 22.75
31.30 31.54 31.47 31.59 31.73 32.23 32.08 31.87 32.09 32.41 32.65 32.45 32.47 32.30 33.11 33.72 38.15 39.02 38.55 35.59 34.89 35.66 36.20 35.56 33.18 32.51 32.50 33.94 36.40 36.79 35.56 36.89 36.33 32.35 28.50 27.35 26.09 26.38 26.64 25.21 26.29 26.60 25.42
31.56 31.02 29.75 30.07 30.14 30.37 30.56 30.71 30.59 30.30 30.23 30.63 30.90 30.56 31.34 31.25 36.43 37.86 37.20 34.98 33.48 33.39 34.00 34.08 33.06 30.88 31.56 31.78 32.46 32.23 32.36 33.45 33.85 32.03 30.60 30.68 30.11 28.84 29.05 29.29 28.08 26.90 25.82
30.51 30.47 29.98 29.20 28.62 28.55 28.63 29.60 29.86 28.70 28.11 27.88 27.85 26.28 26.68 27.88 34.30 35.87 36.06 32.82 32.43 31.88 31.88 32.14 31.56 30.19 31.77 34.02 31.49 30.80 30.11 30.39 33.84 33.82 33.47 33.82 34.45 33.20 31.54 28.55 25.87 24.40 21.94
29.67 29.20 28.85 28.23 26.99 27.16 28.16 28.33 26.41 22.37 27.37 26.42 26.50 25.44 24.85 29.43 32.62 33.95 34.21 32.48 32.04 30.40 29.56 29.61 30.20 30.34 32.21 34.28 31.24 29.97 27.73 27.92 29.36 30.43 30.93 33.04 33.30 32.68 32.85 30.66 26.95 24.03 21.59
27.17 26.77 26.20 26.06 25.10 25.37 25.64 22.36 21.67 22.43 23.39 21.64 23.42 24.45 23.62 24.84 29.88 33.00 34.05 32.04 31.51 29.71 28.13 27.73 28.86 32.79 32.54 34.52 34.55 30.04 29.55 30.23 31.54 29.66 28.94 28.95 29.04 30.04 30.01 28.86 28.13 26.92 23.07
24.37 23.85 24.04 23.16 23.77 25.77 21.36 20.29 19.67 20.31 20.30 26.82 25.62 25.12 24.58 24.73 28.08 31.02 32.50 33.50 32.83 28.11 27.08 27.68 28.68 31.81 34.14 34.92 32.87 32.63 33.65 30.89 29.57 27.99 27.26 26.69 26.97 27.75 27.98 27.41 26.91 25.92 25.74
22.60 21.95 22.75 22.33 22.84 22.44 17.96 20.06 25.28 26.19 26.69 26.87 24.99 24.33 23.82 24.16 26.07 30.17 32.01 33.26 33.69 28.03 28.65 28.85 30.18 31.75 33.84 33.90 33.69 33.84 31.88 29.59 27.57 26.33 25.85 25.92 26.79 27.05 25.33 22.96 21.81 20.13 19.69
23.84 23.22 22.25 22.31 22.69 20.61 21.48 21.47 23.19 25.87 25.77 25.84 25.67 24.81 21.65 22.79 26.72 28.37 30.59 32.10 31.00 29.44 29.38 27.85 30.11 31.09 32.58 32.75 31.56 32.59 29.40 28.82 27.63 26.68 25.93 25.55 25.09 23.69 21.87 20.55 17.64 16.63 15.08
22.24 24.03 23.83 25.89 23.57 20.90 20.04 19.87 19.69 19.55 21.82 17.32 20.73 24.23 23.55 24.40 26.17 29.90 31.06 28.97 27.50 26.75 25.02 25.43 26.33 28.88 29.46 29.64 29.94 30.05 28.82 27.57 26.72 26.45 25.28 23.03 22.69 21.80 19.87 19.21 16.81 14.80 14.38
14.99 21.10 24.85 26.25 25.98 21.04 19.44 20.61 28.45 30.93 31.76 31.64 32.18 28.40 21.75 27.35 30.31 31.06 33.03 32.50 31.37 30.86 22.69 21.37 20.62 25.74 28.15 27.80 27.48 27.66 28.26 27.84 27.39 26.57 24.74 22.98 21.30 20.78 18.47 17.17 14.78 14.01 13.50
12.25 16.42 21.47 24.96 24.37 22.73 17.91 18.98 21.16 23.76 32.02 31.96 32.39 32.53 31.18 29.89 30.37 31.31 33.18 33.31 32.42 31.57 23.18 22.96 23.13 23.92 25.26 25.48 25.28 25.03 24.46 24.61 24.09 23.85 22.08 21.42 20.35 19.58 17.29 14.96 13.49 11.57 10.07
10.49 14.18 17.50 22.54 24.09 21.39 20.68 22.00 22.60 20.40 21.41 22.73 26.29 28.72 32.83 31.58 32.07 32.73 32.89 32.70 29.83 29.48 24.88 24.93 24.68 25.50 24.83 24.37 23.83 23.13 21.78 19.87 19.86 20.59 19.85 18.73 17.93 15.90 13.71 13.09 12.20 9.24 9.02
10.35 15.41 19.98 23.33 21.22 22.44 22.26 23.30 22.67 21.57 20.34 20.02 21.29 24.02 22.95 28.62 28.76 28.43 29.19 25.83 24.06 22.69 23.93 22.85 23.00 23.02 22.58 22.70 21.67 20.47 19.27 17.18 15.89 15.95 14.10 12.37 12.26 10.48 8.75 10.52 10.06 9.04 7.60
12.71 17.44 21.59 19.94 18.27 20.54 22.09 21.84 20.68 19.18 18.48 18.96 19.40 17.88 18.34 18.65 16.38 13.89 14.02 16.34 16.29 15.91 16.12 15.20 14.05 13.27 13.25 13.48 13.09 12.53 11.74 10.29 9.58 9.62 7.81 6.56 7.88 10.02 8.42 6.50 7.32 6.00 4.16
14.42 16.18 18.80 17.72 18.52 19.48 20.21 19.36 18.20 17.24 15.57 14.26 14.96 20.62 20.17 13.18 10.60 9.23 8.21 6.89 7.77 8.04 8.89 8.55 7.78 7.21 6.02 5.54 5.31 3.89 2.36 2.67 1.36 2.04 3.76 4.08 3.75 3.13 3.80 8.10 6.09 4.38 1.03
14.89 15.04 15.24 15.27 15.90 15.87 15.55 15.80 15.25 14.12 12.88 11.68 10.51 13.20 15.57 9.90 8.42 6.73 4.63 3.06 2.28 1.90 1.42 2.96 1.28 -0.40 -0.62 -0.38 0.06 1.25 0.88 -0.86 -1.69 -1.39 -1.16 -2.22 -2.48 -0.44 0.46 -0.14 -0.45 -3.92 -7.70
12.59 12.39 11.97 11.69 12.23 12.48 11.53 11.49 11.18 10.60 9.38 8.78 8.70 7.96 7.12 6.06 5.00 3.04 1.30 0.08 -1.13 -1.62 -2.29 -2.40 -1.65 -2.64 -5.18 -5.62 -5.81 -4.42 -2.91 -4.44 -5.39 -7.43 -6.63 -9.68 -9.84 -9.26 -9.69 -9.68 -10.11 -11.60 -11.44
8.99 9.05 8.75 8.45 8.66 8.42 8.06 7.24 6.92 6.69 5.79 4.62 3.90 2.94 2.00 0.50 -1.05 -1.48 -2.67 -3.81 -3.88 -6.13 -6.70 -7.04 -8.86 -9.59 -10.93 -14.92 -18.29 -18.83 -18.18 -17.29 -19.36 -16.00 -13.45 -12.19 -16.06 -17.51 -18.36 -18.27 -14.92 -12.08 -7.69
5.88 5.80 5.30 5.01 4.98 4.88 4.48 3.66 3.07 2.47 1.71 1.24 -0.33 -0.10 -1.70 -1.71 -1.51 -3.05 -3.84 -3.52 -3.79 -3.10 -4.30 -6.59 -8.27 -10.12 -13.07 -13.07 -14.04 -16.07 -15.57 -8.78 -17.00 -17.11 -21.73 -19.14 -19.52 -20.48 -19.45 -16.66 -11.80 -8.19 -5.05
3.11 2.99 2.56 2.66 2.19 2.09 1.54 0.78 -0.30 -1.21 -2.36 -2.38 -3.02 -3.85 -4.73 -4.64 -4.79 -5.36 -8.26 -8.17 -7.60 -7.52 -8.43 -9.50 -13.36 -14.36 -14.44 -14.09 -14.56 -10.33 -9.31 -1.86 -9.24 -12.08 -19.83 -18.23 -18.29 -19.18 -17.82 -14.50 -11.13 -12.09 -10.66
MSLP
1016.76 1016.82 1016.47 1016.29 1016.11 1015.90 1015.81 1015.80 1015.90 1015.99 1016.12 1016.16 1016.29 1016.38 1016.45 1016.64 1017.02 1017.17 1017.14 1017.13 1017.01 1017.07 1017.16 1017.36 1017.59 1018.03 1018.10 1018.67 1019.20 1019.49 1019.62 1019.89 1019.99 1021.14 1021.36 1021.73 1022.45 1023.12 1023.92 1024.89 1025.70 1026.57 1026.98
1017.11 1016.71 1016.51 1016.26 1016.17 1016.10 1016.02 1015.82 1015.87 1015.73 1015.85 1015.90 1015.89 1015.95 1016.07 1016.22 1016.48 1016.51 1016.42 1016.36 1016.32 1016.49 1016.46 1016.57 1016.65 1016.97 1017.08 1017.60 1017.93 1018.01 1018.46 1018.81 1019.32 1020.33 1021.11 1021.72 1022.09 1022.63 1023.46 1024.15 1025.11 1025.92 1026.17
1017.39 1017.07 1016.65 1016.43 1016.34 1016.15 1015.91 1015.70 1015.49 1015.38 1015.37 1015.40 1015.43 1015.41 1015.36 1015.34 1015.38 1015.29 1015.27 1015.20 1015.29 1015.23 1015.43 1015.50 1015.70 1016.33 1016.31 1016.48 1016.80 1017.14 1017.44 1018.02 1018.63 1019.42 1020.49 1021.27 1021.80 1022.32 1023.20 1024.09 1024.66 1024.96 1025.51
1017.64 1017.36 1017.14 1016.84 1016.45 1016.03 1015.68 1015.44 1015.28 1015.14 1015.08 1014.88 1014.74 1014.69 1014.61 1014.71 1014.72 1014.67 1014.69 1014.64 1014.53 1014.54 1014.66 1014.59 1014.73 1014.99 1015.24 1015.59 1016.13 1016.24 1016.68 1017.40 1018.08 1018.58 1019.35 1020.29 1021.10 1021.86 1022.62 1023.21 1024.16 1024.38 1025.04
1017.92 1017.54 1017.28 1016.89 1016.48 1016.22 1015.87 1015.41 1015.14 1015.04 1014.70 1014.40 1014.36 1014.07 1014.00 1013.95 1013.98 1013.96 1013.81 1013.81 1013.87 1013.95 1014.01 1014.08 1014.19 1014.28 1014.25 1014.59 1015.18 1015.77 1016.30 1016.68 1017.14 1017.60 1018.48 1019.39 1020.06 1020.95 1021.48 1022.11 1022.95 1023.77 1024.87
1018.51 1018.17 1017.64 1017.26 1016.80 1016.12 1015.80 1015.47 1014.99 1014.55 1014.29 1014.23 1014.12 1013.91 1013.57 1013.29 1013.02 1012.92 1013.09 1013.21 1013.25 1013.24 1013.28 1013.34 1013.44 1013.77 1013.96 1014.11 1014.26 1014.56 1014.88 1015.38 1015.93 1016.38 1017.09 1017.97 1018.86 1019.78 1020.60 1021.61 1022.21 1023.60 1024.88
1018.79 1018.33 1017.97 1017.55 1017.10 1016.55 1015.90 1015.45 1014.99 1014.49 1014.00 1013.73 1013.56 1013.44 1013.19 1012.95 1012.85 1012.69 1012.71 1012.55 1012.50 1012.51 1012.61 1012.97 1013.19 1013.34 1013.64 1013.89 1014.05 1014.25 1014.49 1014.56 1014.60 1014.99 1015.97 1017.09 1018.03 1018.98 1019.72 1020.66 1021.35 1022.40 1023.19
1018.89 1018.33 1018.00 1017.82 1017.33 1016.59 1016.01 1015.58 1015.12 1014.50 1014.02 1013.42 1013.06 1012.84 1012.64 1012.40 1012.22 1012.26 1012.19 1012.29 1012.17 1012.09 1012.17 1012.22 1012.56 1012.75 1013.01 1013.16 1013.61 1013.88 1013.95 1014.43 1014.68 1015.05 1015.52 1016.37 1017.22 1018.35 1019.11 1019.53 1020.73 1022.16 1023.21
1019.03 1018.53 1018.19 1017.89 1017.25 1016.61 1016.12 1015.48 1014.96 1014.71 1014.28 1013.84 1013.30 1012.75 1012.36 1011.91 1011.66 1011.64 1011.73 1012.02 1011.93 1012.10 1011.88 1011.72 1012.20 1012.53 1012.60 1012.54 1012.93 1013.29 1013.79 1014.32 1014.91 1015.49 1015.86 1016.43 1017.12 1017.77 1018.84 1019.82 1021.00 1021.94 1022.89
1019.05 1018.72 1018.32 1017.88 1017.32 1016.62 1016.05 1015.62 1015.01 1014.62 1014.03 1013.67 1013.30 1012.83 1012.54 1011.75 1011.08 1010.82 1011.12 1011.51 1011.58 1011.56 1011.65 1011.99 1011.88 1011.85 1012.05 1012.16 1012.61 1013.14 1013.54 1013.88 1014.55 1015.32 1015.75 1016.40 1017.16 1017.80 1018.44 1019.15 1020.20 1021.11 1022.15
1019.04 1018.50 1018.05 1017.51 1017.10 1016.50 1015.83 1015.30 1015.03 1014.49 1014.05 1013.66 1013.08 1012.73 1012.27 1011.86 1011.41 1011.04 1010.54 1010.56 1011.06 1011.54 1011.68 1011.78 1011.61 1012.11 1011.89 1011.81 1012.26 1012.79 1012.81 1013.60 1014.51 1015.34 1015.95 1016.65 1017.40 1018.04 1018.60 1019.31 1019.89 1020.48 1021.47
1019.06 1018.52 1017.76 1017.16 1016.74 1016.16 1015.84 1015.21 1014.76 1014.30 1013.70 1013.39 1013.40 1012.95 1012.33 1011.91 1011.26 1011.06 1010.76 1010.00 1010.64 1011.13 1011.37 1011.46 1011.39 1011.80 1011.70 1011.72 1012.26 1012.78 1013.06 1013.52 1014.34 1015.22 1016.14 1016.87 1017.50 1018.17 1018.72 1019.23 1019.84 1020.37 1020.84
1018.86 1018.22 1017.47 1016.83 1016.43 1015.99 1015.75 1014.95 1014.41 1014.18 1013.70 1013.10 1013.06 1012.89 1012.53 1011.96 1011.29 1010.83 1010.73 1010.01 1010.48 1011.23 1011.32 1011.13 1011.49 1011.37 1011.52 1011.66 1012.20 1012.86 1013.28 1013.89 1014.63 1015.51 1016.17 1016.65 1017.22 1018.03 1018.80 1019.60 1020.24 1020.78 1021.49
1018.87 1018.01 1017.25 1016.64 1015.96 1015.67 1015.24 1014.99 1014.23 1013.84 1013.47 1013.07 1012.89 1012.43 1012.12 1012.13 1011.67 1010.86 1010.66 1010.79 1010.95 1011.23 1011.26 1011.12 1011.35 1011.47 1011.48 1011.76 1012.22 1012.82 1013.55 1014.22 1014.92 1015.47 1016.11 1016.80 1017.50 1018.21 1018.89 1019.39 1020.17 1021.04 1021.84
1018.90 1017.90 1017.05 1016.35 1015.90 1015.40 1015.01 1014.61 1014.08 1013.69 1013.36 1012.97 1012.53 1012.48 1012.23 1011.94 1011.68 1011.16 1010.89 1011.12 1011.53 1011.47 1011.61 1011.66 1011.62 1011.53 1011.78 1012.12 1012.48 1013.09 1013.75 1014.34 1014.98 1015.79 1016.41 1017.00 1017.63 1018.21 1018.73 1019.10 1019.78 1020.83 1021.37
1018.93 1017.79 1016.79 1015.92 1015.28 1014.95 1014.60 1014.10 1013.49 1013.12 1012.78 1012.41 1012.11 1012.06 1012.04 1011.87 1011.46 1011.25 1011.09 1011.39 1011.74 1011.76 1012.05 1012.28 1012.30 1012.11 1012.22 1012.74 1013.18 1013.79 1014.12 1014.66 1015.17 1015.85 1016.40 1016.88 1017.29 1017.66 1018.29 1019.10 1019.68 1020.28 1021.00
1018.75 1017.61 1016.61 1015.70 1014.93 1014.46 1014.20 1014.06 1013.76 1013.09 1012.69 1012.44 1011.93 1011.80 1011.64 1011.64 1011.31 1011.45 1011.52 1011.60 1011.75 1012.06 1012.53 1012.74 1012.96 1012.93 1013.12 1013.48 1013.85 1014.29 1014.94 1015.12 1015.50 1015.84 1016.19 1016.58 1017.15 1017.81 1018.37 1019.14 1019.84 1020.47 1021.11
1018.15 1017.12 1016.15 1015.15 1014.28 1013.78 1013.67 1013.65 1013.51 1013.42 1013.20 1013.00 1012.61 1012.23 1011.62 1011.70 1011.56 1011.65 1011.90 1012.06 1012.12 1012.34 1012.93 1013.22 1013.43 1013.59 1013.86 1014.06 1014.21 1014.62 1015.03 1015.46 1015.77 1016.20 1016.64 1016.93 1017.31 1017.89 1018.40 1018.98 1019.74 1020.42 1021.19
1017.58 1016.38 1015.32 1014.38 1013.68 1013.40 1013.34 1013.39 1013.49 1013.62 1013.73 1013.72 1013.38 1012.87 1012.76 1012.43 1012.37 1012.43 1012.55 1012.91 1013.16 1013.46 1013.83 1014.08 1014.32 1014.54 1014.71 1014.80 1015.08 1015.41 1015.79 1016.27 1016.63 1017.03 1017.42 1017.70 1018.01 1018.31 1018.86 1019.27 1019.92 1020.54 1021.32
1016.92 1015.76 1014.82 1014.02 1013.51 1013.28 1013.29 1013.54 1013.78 1014.04 1014.28 1014.25 1014.28 1014.10 1013.80 1013.50 1013.96 1014.54 1014.72 1014.59 1014.76 1015.17 1015.33 1015.48 1015.79 1016.01 1016.19 1016.17 1016.39 1016.41 1016.79 1017.17 1017.49 1017.76 1018.07 1018.27 1018.60 1018.75 1019.17 1019.69 1020.25 1021.02 1021.55
1016.44 1015.56 1014.84 1014.42 1014.01 1013.75 1013.77 1014.11 1014.43 1014.65 1014.94 1015.15 1015.19 1014.80 1014.82 1015.00 1015.66 1016.04 1016.31 1016.46 1016.60 1016.77 1016.96 1017.16 1017.28 1017.37 1017.50 1017.46 1017.43 1017.60 1017.96 1018.24 1018.35 1018.44 1018.62 1018.71 1019.03 1019.49 1019.91 1020.13 1020.60 1021.11 1021.60
1016.24 1015.66 1015.32 1015.12 1014.72 1014.54 1014.67 1014.92 1015.29 1015.64 1015.93 1016.14 1016.42 1016.39 1016.32 1016.53 1017.05 1017.40 1017.71 1017.95 1018.19 1018.33 1018.39 1018.26 1018.57 1018.82 1018.76 1018.59 1018.50 1018.48 1018.70 1018.91 1018.84 1019.02 1019.27 1019.48 1019.70 1020.07 1020.48 1020.82 1021.21 1021.67 1022.15
1016.63 1016.26 1016.37 1016.24 1015.91 1015.85 1015.94 1016.19 1016.55 1016.83 1017.09 1017.36 1017.57 1017.82 1017.95 1018.16 1018.53 1018.86 1019.09 1019.23 1019.24 1019.40 1019.52 1019.44 1019.42 1019.61 1019.51 1019.41 1019.40 1019.31 1019.27 1019.32 1019.41 1019.48 1019.62 1020.03 1020.39 1020.83 1021.04 1021.51 1021.75 1022.05 1022.29
1017.43 1017.45 1017.52 1017.49 1017.45 1017.46 1017.51 1017.67 1017.88 1018.10 1018.39 1018.69 1018.92 1019.16 1019.38 1019.62 1019.84 1019.96 1020.00 1020.14 1020.23 1020.30 1020.30 1020.23 1020.30 1020.27 1020.15 1020.19 1020.12 1020.04 1019.92 1019.80 1019.78 1019.89 1020.02 1020.39 1020.70 1021.11 1021.25 1021.60 1021.95 1022.05 1022.14
1018.43 1018.81 1018.72 1018.75 1018.90 1018.88 1018.90 1019.01 1019.16 1019.34 1019.59 1019.84 1020.05 1020.16 1020.37 1020.38 1020.40 1020.51 1020.54 1020.52 1020.51 1020.40 1020.38 1020.46 1020.36 1020.23 1020.27 1020.19 1020.10 1019.97 1019.86 1019.69 1019.76 1019.98 1020.35 1020.70 1020.99 1021.11 1021.33 1021.41 1021.61 1021.84 1021.88
1019.94 1020.03 1019.99 1020.04 1020.12 1020.17 1020.23 1020.35 1020.47 1020.55 1020.72 1020.90 1021.01 1021.08 1021.13 1021.16 1021.18 1021.16 1021.16 1021.10 1021.05 1020.92 1020.78 1020.57 1020.54 1020.36 1020.12 1020.00 1019.90 1019.66 1019.51 1019.45 1019.46 1019.63 1020.04 1020.46 1020.90 1021.05 1021.16 1021.18 1021.36 1021.63 1021.81
Wind_Speed
7 6 7 6 7 6 7 6 6 6 6 8 8 9 10 10 9 11 13 13 13 13 13 13 15 14 11 9 9 9 10 9 12 1 2 4 13 14 11 11 9 8 8
7 7 7 6 6 6 6 6 5 7 6 7 7 9 10 10 11 12 14 12 14 13 13 13 15 10 14 12 10 13 12 12 10 6 3 3 4 10 9 11 10 10 8
7 7 7 7 7 7 7 7 6 7 7 7 7 9 10 13 13 13 15 14 14 15 14 14 15 14 14 12 12 11 9 7 9 4 4 2 2 6 6 8 10 7 6
8 6 7 8 8 7 7 7 7 6 7 7 8 10 10 11 12 13 13 13 13 13 13 13 13 15 15 14 11 11 9 9 9 8 5 5 3 5 8 10 7 3 6
11 11 10 8 6 7 7 7 7 7 7 7 7 8 8 9 8 11 12 12 12 12 11 11 11 13 15 14 9 10 11 10 9 9 5 3 5 6 12 8 7 5 3
11 10 11 10 10 9 8 8 7 7 7 6 7 9 9 8 14 18 15 11 11 11 11 9 8 8 11 17 21 20 19 15 14 10 8 9 9 9 9 8 6 5 4
8 8 8 8 10 11 9 8 8 7 6 7 7 7 9 8 13 16 18 10 9 10 10 8 6 5 8 8 17 20 21 24 21 14 12 10 12 12 11 10 8 9 6
11 9 6 7 9 9 9 10 9 6 7 6 6 6 7 5 14 15 15 11 8 8 8 9 9 8 10 11 10 10 10 10 11 7 11 11 9 10 13 10 10 6 5
10 10 9 9 10 9 9 9 8 7 6 6 6 6 6 5 12 12 11 5 7 8 6 7 8 7 12 19 11 11 9 6 8 10 9 13 16 19 12 9 7 7 3
9 10 10 9 9 10 9 9 4 3 7 5 7 6 7 6 9 10 9 4 7 5 4 5 11 9 16 20 11 10 10 9 10 8 8 11 12 14 19 9 9 8 3
8 10 10 7 8 8 7 3 4 5 5 5 5 5 5 5 6 10 9 4 5 4 4 3 3 15 15 19 16 10 12 12 13 8 7 6 7 7 7 5 8 7 5
9 10 10 8 7 6 6 5 5 4 3 4 5 6 4 4 6 10 11 10 9 5 4 2 3 13 15 15 12 14 17 14 7 7 7 6 6 5 4 5 6 5 3
9 10 10 8 7 6 5 6 4 3 4 4 3 5 5 4 4 9 11 9 9 3 3 4 9 12 13 11 15 16 12 7 7 6 6 5 6 5 6 5 6 8 6
13 12 9 9 10 6 4 4 3 4 4 3 4 5 3 4 4 3 3 2 8 3 4 2 5 6 5 5 9 9 6 6 6 6 4 3 4 5 4 4 3 4 3
10 12 11 9 8 7 5 4 3 4 4 2 3 4 4 4 3 5 2 2 1 2 3 2 1 1 3 4 5 5 5 5 5 3 3 5 5 5 3 4 3 3 3
10 9 9 8 8 5 4 4 7 8 8 7 8 4 2 7 8 8 4 6 5 6 3 2 2 2 4 4 5 4 3 5 4 5 5 5 5 5 5 3 2 3 5
9 11 9 12 8 5 3 2 3 4 9 12 11 6 3 4 1 3 4 6 5 6 2 2 2 3 3 3 3 3 2 1 2 3 3 3 3 3 5 4 4 3 2
10 14 10 11 7 4 3 3 2 0 1 2 6 13 10 5 5 2 2 4 2 4 2 2 2 2 2 1 2 1 2 2 2 2 2 3 3 3 3 4 4 3 3
9 8 9 9 5 4 2 2 3 3 3 3 3 6 9 13 16 18 15 4 5 5 4 5 5 4 3 3 3 3 3 2 2 1 1 2 2 3 2 3 3 5 5
9 11 9 3 2 2 3 4 4 4 4 4 4 4 4 5 6 6 6 6 7 6 5 6 5 5 4 4 3 3 3 3 2 2 2 2 2 2 2 3 4 3 3
6 5 5 2 2 2 3 4 4 4 4 4 4 7 13 7 6 6 6 7 6 5 5 5 4 4 4 4 3 4 3 2 2 2 2 2 3 2 2 2 3 3 3
4 3 3 2 2 4 5 5 5 4 4 4 4 7 13 6 5 5 5 5 4 4 4 4 4 4 3 3 3 3 2 2 2 2 2 2 2 3 2 2 2 2 3
4 5 5 4 5 6 6 5 5 5 5 5 5 5 6 6 5 5 5 5 5 5 4 4 3 3 3 3 3 3 2 0 1 1 2 2 2 2 2 2 3 2 3
6 6 5 5 5 5 5 5 6 7 6 6 5 5 5 5 4 4 3 2 2 2 2 2 2 2 2 2 2 2 1 0 1 1 3 3 3 3 2 2 3 3 3
7 6 6 6 5 5 5 5 6 5 5 4 4 3 3 3 3 3 3 3 3 3 4 3 2 3 2 4 4 3 3 4 1 3 3 4 4 5 3 3 3 2 3
7 7 6 5 5 5 4 4 4 4 4 3 3 3 2 2 2 2 2 3 2 2 3 2 3 5 5 3 5 5 4 5 4 5 4 3 3 3 3 3 4 2 3
Wind_Direction
335 297 293 284 272 253 242 248 241 237 212 216 215 217 220 219 223 230 236 239 235 234 225 221 225 223 224 208 212 216 222 220 238 72 196 165 189 193 179 183 188 197 209
307 318 315 301 292 280 269 261 241 241 227 224 216 222 227 230 230 228 235 232 233 232 232 226 229 222 223 215 208 209 213 215 219 175 156 151 169 181 173 180 189 199 183
349 343 326 312 306 289 280 273 255 249 243 236 223 225 223 225 226 223 229 230 231 234 232 229 231 227 228 222 212 214 209 196 201 159 146 147 106 174 170 187 191 170 179
352 347 335 327 316 298 289 281 272 263 258 251 235 234 228 230 231 232 233 235 235 236 236 234 230 227 226 224 210 208 189 181 185 183 159 151 155 161 179 177 178 165 175
346 344 336 324 315 308 301 292 282 269 261 250 247 241 237 226 227 228 227 229 233 238 234 235 235 233 224 218 197 198 188 193 189 188 167 147 158 156 182 177 174 153 183
338 331 328 331 328 326 319 311 298 285 274 265 257 250 245 240 235 226 223 227 230 232 238 231 228 225 222 220 210 206 195 192 193 189 175 178 170 166 166 179 136 151 182
321 317 323 327 326 323 318 312 304 296 284 276 266 255 255 250 248 238 232 232 228 230 235 237 221 211 206 212 221 217 216 214 203 181 174 174 171 173 165 159 172 182 190
318 315 311 315 314 315 315 310 305 295 290 279 269 255 256 245 248 248 239 239 236 235 228 217 217 198 195 192 198 202 204 209 197 174 165 163 172 168 180 176 174 143 95
311 316 320 317 310 310 308 310 307 297 298 288 280 276 248 243 259 260 251 239 244 248 229 210 206 203 204 200 192 189 179 169 161 149 156 159 160 157 152 134 154 156 158
314 311 305 304 301 306 304 305 287 271 285 295 298 278 273 269 260 252 257 228 248 230 212 221 206 197 202 205 196 183 174 160 146 147 151 157 152 162 165 178 158 173 136
306 304 298 287 288 282 290 271 280 295 298 299 297 290 293 272 287 284 263 221 226 235 214 208 201 221 215 213 199 187 175 151 155 143 133 129 137 154 159 163 169 170 160
302 301 297 293 294 294 291 287 287 299 284 304 311 308 294 283 286 288 284 269 215 182 193 184 190 223 223 223 177 177 163 151 138 134 139 146 155 175 168 160 158 131 141
307 300 299 297 292 289 295 296 298 296 297 306 291 300 302 305 297 304 294 299 205 167 166 193 226 230 234 213 173 179 166 146 140 147 160 162 178 160 130 111 91 93 85
301 302 303 304 309 304 294 285 296 298 296 290 297 298 296 308 308 330 343 268 161 159 205 225 241 238 204 162 158 166 131 138 153 158 161 128 121 142 161 148 130 139 116
295 296 297 294 296 294 280 268 265 260 231 246 271 283 298 302 302 302 294 102 87 149 81 34 359 111 140 133 127 128 126 126 128 127 142 155 168 166 159 149 121 139 155
302 295 292 289 287 274 280 298 292 290 298 285 292 267 263 266 307 307 177 165 161 141 43 36 24 49 111 111 116 119 119 144 159 169 171 172 173 166 152 145 122 165 173
281 288 289 285 274 261 257 258 298 335 70 58 40 346 308 281 17 321 167 149 147 126 60 56 66 62 70 90 111 114 137 128 125 153 142 151 138 155 152 161 161 145 144
281 280 275 274 260 235 216 231 212 27 345 348 360 28 37 82 59 118 160 135 133 102 94 94 85 92 92 102 109 102 92 86 75 83 103 134 153 145 143 162 170 157 132
284 280 276 270 241 216 188 136 101 73 51 17 346 8 15 51 57 49 47 47 65 51 39 46 29 34 36 44 47 59 55 61 69 99 103 110 121 115 102 124 139 148 140
281 278 282 260 217 149 129 119 103 93 71 50 36 6 352 37 46 39 35 45 52 46 42 51 40 42 40 43 44 53 66 58 68 93 84 103 120 124 130 131 145 156 177
289 298 318 333 31 60 86 91 94 90 85 68 35 47 66 75 65 52 47 39 43 45 40 41 38 43 35 37 51 61 62 66 81 96 113 115 125 118 108 148 147 140 127
305 338 357 4 39 61 67 72 76 81 74 76 52 44 64 60 60 62 58 53 47 43 28 45 51 37 31 37 27 57 67 72 59 69 78 91 101 94 113 109 120 116 126
3 31 22 18 37 54 62 58 65 68 67 60 53 51 46 52 54 49 46 36 35 36 22 29 45 37 23 31 22 29 82 73 246 145 143 141 127 141 151 148 142 126 147
41 33 40 36 37 48 55 61 62 57 58 53 51 50 49 48 49 55 48 19 36 25 37 35 39 40 10 10 0 359 4 335 125 157 142 142 159 162 134 125 156 155 155
46 43 43 43 37 43 55 56 60 60 59 55 51 56 41 40 47 36 24 19 14 13 7 353 344 347 345 340 339 327 300 348 155 136 123 130 159 169 160 152 154 162 158
38 40 37 37 39 40 45 49 46 47 47 46 37 32 24 24 16 12 355 353 347 324 316 311 308 310 312 296 292 285 266 268 240 185 163 152 159 172 164 176 179 163 161